Weather History for Grafton, ND

Change the Weather History Date:

Tuesday, November 20, 2012

  Actual Average Record
Temperature  
Mean Temperature 32 °F -  
Max Temperature 41 °F 32 °F 54 °F (1990)
Min Temperature 23 °F 15 °F -16 °F (1978)
Degree Days  
Heating Degree Days 33    
Moisture  
Dew Point 30 °F    
Average Humidity 94    
Maximum Humidity 100    
Minimum Humidity 70    
Precipitation  
Precipitation 0.00 in - - ()
Sea Level Pressure  
Sea Level Pressure 29.97 in    
Wind  
Wind Speed 10 mph (South)    
Max Wind Speed 18 mph    
Max Gust Speed 22 mph    
Visibility 8 miles    
Events      
Averages and records for this station are not official NWS values.
T = Trace of Precipitation, MM = Missing Value Source: NWS Daily Summary

Daily Weather History Graph

Daily Weather History Graph

Search for Another Location

Airport:

Trip Planner

Search our weather history database for the weather conditions in past years. The results will help you decide how hot, cold, wet, or windy it might be!

Date:

Astronomy

Nov. 20, 2012 Rise Set
Actual Time 7:45 AM CST 4:44 PM CST
Civil Twilight 7:10 AM CST 5:19 PM CST
Nautical Twilight 6:32 AM CST 5:57 PM CST
Astronomical Twilight 5:54 AM CST 6:35 PM CST
Moon 1:03 PM CST (11/20) No Moon Set
Length of Visible Light 10h 08m
Length of Day
8h 59m
First Quarter, 51% of the Moon is Illuminated
Nov 20
First Quarter
Nov 28
Full
Dec 6
Last Quarter
Dec 13
New
Dec 19
First Quarter

Hourly Weather History & Observations

Time (CST) Temp. Windchill Dew Point Humidity Pressure Visibility Wind Dir Wind Speed Gust Speed Precip Events Conditions
12:15 AM 23.0 °F 15.8 °F 23.0 °F 100% 30.13 in 5.0 mi South 5.8 mph - N/A   Clear
12:35 AM 23.0 °F 15.8 °F 23.0 °F 100% 30.13 in 5.0 mi South 5.8 mph - N/A   Clear
12:55 AM 23.0 °F 14.7 °F 23.0 °F 100% 30.14 in 5.0 mi South 6.9 mph - N/A   Clear
1:15 AM 23.0 °F 14.7 °F 23.0 °F 100% 30.14 in 5.0 mi South 6.9 mph - N/A   Clear
1:35 AM 23.0 °F 17.0 °F 23.0 °F 100% 30.14 in 5.0 mi South 4.6 mph - N/A   Clear
1:55 AM 23.0 °F 15.8 °F 23.0 °F 100% 30.14 in 5.0 mi South 5.8 mph - N/A   Clear
2:15 AM 23.0 °F 17.0 °F 23.0 °F 100% 30.14 in 6.0 mi SSW 4.6 mph - N/A   Clear
2:35 AM 23.0 °F 14.7 °F 23.0 °F 100% 30.13 in 6.0 mi South 6.9 mph - N/A   Clear
6:15 AM 24.8 °F 14.6 °F 24.8 °F 100% 30.10 in 7.0 mi SSE 10.4 mph - N/A   Clear
6:35 AM 26.6 °F 17.5 °F 26.6 °F 100% 30.09 in 7.0 mi SSE 9.2 mph - N/A   Clear
6:55 AM 26.6 °F 16.2 °F 26.6 °F 100% 30.09 in 7.0 mi SSE 11.5 mph - N/A   Clear
7:15 AM 26.6 °F 16.2 °F 26.6 °F 100% 30.09 in 7.0 mi SSE 11.5 mph - N/A   Clear
7:35 AM 26.6 °F 16.2 °F 26.6 °F 100% 30.08 in 6.0 mi SSE 11.5 mph - N/A   Clear
7:55 AM 26.6 °F 16.2 °F 26.6 °F 100% 30.07 in 5.0 mi South 11.5 mph - N/A   Clear
8:15 AM 28.4 °F 18.0 °F 28.4 °F 100% 30.07 in 5.0 mi SSE 12.7 mph - N/A   Clear
8:35 AM 28.4 °F 17.5 °F 28.4 °F 100% 30.06 in 5.0 mi SSE 13.8 mph - N/A   Clear
8:55 AM 28.4 °F 18.0 °F 28.4 °F 100% 30.06 in 5.0 mi South 12.7 mph 18.4 mph N/A   Clear
9:15 AM 30.2 °F 18.1 °F 28.4 °F 93% 30.04 in 5.0 mi South 18.4 mph 21.9 mph N/A   Clear
9:35 AM 30.2 °F 18.9 °F 30.2 °F 100% 30.03 in 5.0 mi South 16.1 mph - N/A   Clear
9:55 AM 32.0 °F 22.5 °F 32.0 °F 100% 30.04 in 5.0 mi South 12.7 mph 19.6 mph N/A   Clear
10:15 AM 32.0 °F 22.1 °F 32.0 °F 100% 30.03 in 5.0 mi South 13.8 mph - N/A   Clear
10:35 AM 32.0 °F 22.1 °F 32.0 °F 100% 30.03 in 5.0 mi South 13.8 mph - N/A   Clear
10:55 AM 32.0 °F 21.6 °F 32.0 °F 100% 30.02 in 6.0 mi South 15.0 mph - N/A   Clear
11:15 AM 33.8 °F 23.9 °F 32.0 °F 93% 30.01 in 6.0 mi South 15.0 mph - N/A   Clear
11:35 AM 35.6 °F 27.1 °F 33.8 °F 93% 30.01 in 7.0 mi South 12.7 mph - N/A   Clear
11:55 AM 35.6 °F 25.9 °F 32.0 °F 87% 30.00 in 8.0 mi South 16.1 mph - N/A   Clear
12:15 PM 37.4 °F 28.9 °F 33.8 °F 87% 29.99 in 8.0 mi South 13.8 mph 18.4 mph N/A   Clear
12:35 PM 37.4 °F 29.3 °F 32.0 °F 81% 29.98 in 9.0 mi South 12.7 mph - N/A   Clear
12:55 PM 37.4 °F 28.2 °F 33.8 °F 87% 29.96 in 8.0 mi South 16.1 mph 20.7 mph N/A   Clear
1:15 PM 39.2 °F 30.5 °F 33.8 °F 81% 29.95 in 9.0 mi South 16.1 mph 20.7 mph N/A   Clear
1:35 PM 39.2 °F 31.2 °F 32.0 °F 75% 29.95 in 10.0 mi South 13.8 mph 18.4 mph N/A   Clear
1:55 PM 39.2 °F 31.2 °F 32.0 °F 75% 29.94 in 10.0 mi South 13.8 mph - N/A   Clear
2:15 PM 41.0 °F 33.1 °F 32.0 °F 70% 29.94 in 10.0 mi South 15.0 mph 19.6 mph N/A   Clear
2:35 PM 39.2 °F 30.5 °F 32.0 °F 75% 29.91 in 10.0 mi SSE 16.1 mph 21.9 mph N/A   Clear
2:55 PM 39.2 °F 31.6 °F 33.8 °F 81% 29.90 in 10.0 mi SSE 12.7 mph - N/A   Clear
3:15 PM 37.4 °F 28.5 °F 33.8 °F 87% 29.89 in 8.0 mi SSE 15.0 mph - N/A   Clear
3:35 PM 37.4 °F 28.2 °F 32.0 °F 81% 29.89 in 9.0 mi SSE 16.1 mph 19.6 mph N/A   Clear
3:55 PM 37.4 °F 29.3 °F 32.0 °F 81% 29.89 in 8.0 mi South 12.7 mph - N/A   Clear
4:15 PM 37.4 °F 30.8 °F 32.0 °F 81% 29.89 in 9.0 mi South 9.2 mph - N/A   Clear
4:35 PM 35.6 °F 28.6 °F 32.0 °F 87% 29.90 in 8.0 mi South 9.2 mph - N/A   Clear
4:55 PM 35.6 °F 28.6 °F 32.0 °F 87% 29.90 in 8.0 mi South 9.2 mph - N/A   Clear
5:15 PM 33.8 °F 26.4 °F 32.0 °F 93% 29.90 in 10.0 mi South 9.2 mph - N/A   Clear
5:35 PM 33.8 °F 27.0 °F 32.0 °F 93% 29.90 in 10.0 mi South 8.1 mph - N/A   Clear
5:55 PM 32.0 °F 24.2 °F 32.0 °F 100% 29.89 in 9.0 mi South 9.2 mph - N/A   Clear
6:15 PM 33.8 °F 27.7 °F 32.0 °F 93% 29.89 in 10.0 mi South 6.9 mph - N/A   Clear
6:35 PM 33.8 °F 25.8 °F 32.0 °F 93% 29.89 in 10.0 mi South 10.4 mph - N/A   Clear
6:55 PM 33.8 °F 26.4 °F 32.0 °F 93% 29.88 in 10.0 mi South 9.2 mph - N/A   Clear
7:15 PM 33.8 °F 26.4 °F 32.0 °F 93% 29.87 in 10.0 mi South 9.2 mph - N/A   Clear
7:35 PM 33.8 °F 26.4 °F 32.0 °F 93% 29.87 in 10.0 mi South 9.2 mph - N/A   Clear
7:55 PM 33.8 °F 26.4 °F 32.0 °F 93% 29.85 in 10.0 mi South 9.2 mph - N/A   Clear
8:15 PM 33.8 °F 25.8 °F 32.0 °F 93% 29.85 in 10.0 mi South 10.4 mph - N/A   Clear
8:35 PM 35.6 °F 28.6 °F 32.0 °F 87% 29.85 in 10.0 mi South 9.2 mph - N/A   Clear
8:55 PM 32.0 °F 27.5 °F 32.0 °F 100% 29.87 in 10.0 mi SSW 4.6 mph - N/A   Clear
9:15 PM 32.0 °F 25.6 °F 32.0 °F 100% 29.86 in 10.0 mi South 6.9 mph - N/A   Clear
9:35 PM 32.0 °F 25.6 °F 32.0 °F 100% 29.86 in 8.0 mi South 6.9 mph - N/A   Clear
9:55 PM 32.0 °F 26.4 °F 32.0 °F 100% 29.86 in 8.0 mi South 5.8 mph - N/A   Clear
10:15 PM 32.0 °F 24.8 °F 32.0 °F 100% 29.85 in 8.0 mi SSE 8.1 mph - N/A   Clear
10:35 PM 32.0 °F 25.6 °F 32.0 °F 100% 29.85 in 9.0 mi South 6.9 mph - N/A   Clear
10:55 PM 32.0 °F 27.5 °F 32.0 °F 100% 29.85 in 8.0 mi South 4.6 mph - N/A   Clear
11:15 PM 32.0 °F 26.4 °F 32.0 °F 100% 29.85 in 8.0 mi SSE 5.8 mph - N/A   Clear
11:35 PM 32.0 °F 26.4 °F 32.0 °F 100% 29.85 in 7.0 mi South 5.8 mph - N/A   Clear
11:55 PM 32.0 °F 24.8 °F 32.0 °F 100% 29.85 in 9.0 mi South 8.1 mph - N/A   Clear